Location: El Bakhil
(32.7726°N, 5.5387°W)
Time: 11:48:10
(UTC+00:00)

Tiangong - Visible Passes

Search period start: 20 September 2021 00:00
Search period end: 30 September 2021 00:00
Orbit: 380 x 386 km, 41.5° (Epoch: 18 September)

Date Brightness Start Highest point End Pass type
(mag) Time Alt. Az. Time Alt. Az. Time Alt. Az.
21 Sep 4.0 05:42:34 10° SSE 05:44:03 13° SE 05:45:31 10° ESE visible
23 Sep 3.1 05:17:02 10° SSW 05:19:39 24° SE 05:22:17 10° E visible
24 Sep 3.9 04:19:19 12° SE 04:19:19 12° SE 04:20:35 10° ESE visible
25 Sep 1.7 04:54:07 35° SSW 04:55:01 49° SSE 04:58:04 10° ENE visible
26 Sep 4.4 03:56:34 12° E 03:56:34 12° E 03:56:58 10° E visible
26 Sep 1.6 05:28:44 16° W 05:31:00 44° NNW 05:34:02 10° NE visible
27 Sep 2.2 04:31:01 43° NE 04:31:01 43° NE 04:33:17 10° ENE visible
28 Sep 2.3 05:05:18 25° NW 05:06:06 28° NNW 05:08:54 10° NE visible
29 Sep 4.1 04:07:19 15° NE 04:07:19 15° NE 04:08:03 10° NE visible
29 Sep 3.2 05:39:59 10° NW 05:42:13 18° N 05:44:27 10° NE visible
